CW1238 Weather Reports


Display with metric or nautical units.
time (UTC)temp
F
wind
direction
speed
MPH
gust
MPH
rain 1hr
in
rain 24hr
in
rain mn
in
humidity
%
barometer
mb
20260906224917 73 107 2.0 3.0 0.00 0.00 0.00 88 1056.5
20260906224413 73 226 1.0 1.0 0.00 0.00 0.00 87 1056.5
20260906223909 73 226 1.0 6.0 0.00 0.00 0.00 87 1056.3
20260906223405 73 75 0.0 1.0 0.00 0.00 0.00 87 1056.4
20260906222903 73 75 0.0 1.0 0.00 0.00 0.00 87 1056.4
20260906222402 73 75 0.0 1.0 0.00 0.00 0.00 87 1056.6
20260906221900 73 75 0.0 1.0 0.00 0.00 0.00 87 1056.2
20260906221359 73 200 2.0 2.0 0.00 0.00 0.00 87 1056.2
20260906220854 73 92 2.0 3.0 0.00 0.00 0.00 87 1056.2
20260906220350 73 140 2.0 2.0 0.00 0.00 0.00 87 1056.1
20260906215849 73 210 3.0 4.0 0.00 0.00 0.00 87 1055.9
20260906215344 73 48 3.0 4.0 0.00 0.00 0.00 87 1056.1
20260906214842 73 29 2.0 3.0 0.00 0.00 0.00 87 1056.0
20260906214342 73 21 3.0 4.0 0.00 0.00 0.00 87 1055.8
20260906213841 73 67 2.0 2.0 0.00 0.00 0.00 87 1055.8
20260906213336 73 93 2.0 3.0 0.00 0.00 0.00 87 1056.0
20260906212833 73 112 4.0 7.0 0.00 0.00 0.00 88 1056.2
20260906212329 73 164 4.0 4.0 0.00 0.00 0.00 88 1056.1
20260906211828 73 164 4.0 4.0 0.00 0.00 0.00 88 1056.1
20260906211324 73 164 4.0 4.0 0.00 0.00 0.00 88 1056.5
20260906210818 73 35 2.0 3.0 0.00 0.00 0.00 88 1056.4
20260906210313 73 247 1.0 2.0 0.00 0.00 0.00 88 1056.3
20260906205808 73 47 3.0 6.0 0.00 0.00 0.00 88 1056.3
20260906205306 73 59 2.0 4.0 0.00 0.00 0.00 87 1056.6
20260906204800 73 59 2.0 4.0 0.00 0.00 0.00 87 1056.8
20260906204259 73 6 3.0 3.0 0.00 0.00 0.00 88 1056.8
20260906203758 73 133 2.0 3.0 0.00 0.00 0.00 88 1056.5
20260906203254 73 133 2.0 3.0 0.00 0.00 0.00 88 1056.9
20260906202751 73 46 4.0 7.0 0.00 0.00 0.00 87 1056.7
20260906202250 73 125 4.0 6.0 0.00 0.00 0.00 87 1056.9
20260906201745 73 125 4.0 6.0 0.00 0.00 0.00 87 1056.8
20260906201244 73 29 1.0 3.0 0.00 0.00 0.00 88 1056.8
20260906200740 73 37 1.0 1.0 0.00 0.00 0.00 88 1057.1
20260906200236 73 37 1.0 1.0 0.00 0.00 0.00 88 1057.2
20260906195732 73 37 1.0 1.0 0.00 0.00 0.00 88 1057.3
20260906195228 73 88 3.0 3.0 0.00 0.00 0.00 88 1057.6
20260906194723 73 88 3.0 3.0 0.00 0.00 0.00 88 1057.7
20260906194219 73 88 3.0 3.0 0.00 0.00 0.00 88 1057.8
20260906193714 73 88 3.0 3.0 0.00 0.00 0.00 88 1057.8
20260906193208 73 88 3.0 3.0 0.00 0.00 0.00 88 1057.7
20260906192704 73 88 3.0 3.0 0.00 0.00 0.00 88 1057.8
20260906192158 73 86 3.0 4.0 0.00 0.00 0.00 87 1058.1
20260906191653 73 86 3.0 4.0 0.00 0.00 0.00 87 1057.7
20260906191152 73 85 3.0 4.0 0.00 0.00 0.00 88 1057.6
20260906190646 73 57 5.0 7.0 0.00 0.00 0.00 88 1057.7
20260906190141 73 34 2.0 4.0 0.00 0.00 0.00 89 1057.6
20260906185640 73 34 2.0 4.0 0.00 0.00 0.00 89 1057.9
20260906185139 73 109 2.0 2.0 0.00 0.00 0.00 88 1057.9
20260906184634 73 109 2.0 2.0 0.00 0.00 0.00 88 1057.8
20260906184130 73 188 0.0 1.0 0.00 0.00 0.00 88 1057.7
20260906183625 73 188 0.0 1.0 0.00 0.00 0.00 88 1057.6
20260906183121 73 188 0.0 1.0 0.00 0.00 0.00 88 1057.5
20260906182616 73 188 0.0 1.0 0.00 0.00 0.00 88 1057.6
20260906182112 73 188 0.0 1.0 0.00 0.00 0.00 88 1057.7
20260906181607 72 226 2.0 2.0 0.00 0.00 0.00 89 1057.6
20260906181103 72 214 0.0 1.0 0.00 0.00 0.00 89 1057.6
20260906180557 72 195 2.0 2.0 0.00 0.00 0.00 89 1057.6
20260906180056 72 184 2.0 2.0 0.00 0.00 0.00 89 1057.7
20260906175555 72 166 0.0 1.0 0.00 0.00 0.00 89 1057.8
20260906175051 72 226 0.0 3.0 0.00 0.00 0.00 89 1057.7
20260906174548 72 348 1.0 3.0 0.00 0.00 0.00 89 1057.7
20260906174043 72 62 2.0 3.0 0.00 0.00 0.00 89 1057.8
20260906173538 72 169 0.0 3.0 0.00 0.00 0.00 89 1057.9
20260906173034 72 141 1.0 3.0 0.00 0.00 0.00 89 1058.1
20260906172529 72 286 0.0 3.0 0.00 0.00 0.00 89 1058.2
20260906172024 72 120 1.0 2.0 0.00 0.00 0.00 88 1058.2
20260906171519 72 182 3.0 4.0 0.00 0.00 0.00 88 1058.5
20260906171014 72 104 1.0 2.0 0.00 0.00 0.00 88 1058.3
20260906170510 72 110 1.0 4.0 0.00 0.00 0.00 88 1058.4
20260906170009 72 171 2.0 4.0 0.00 0.00 0.00 89 1058.6
20260906165506 72 231 1.0 2.0 0.00 0.00 0.00 88 1058.6
20260906165001 72 215 2.0 3.0 0.00 0.00 0.00 88 1058.8
20260906164500 72 217 2.0 3.0 0.00 0.00 0.00 89 1058.6
20260906163956 72 222 0.0 1.0 0.00 0.00 0.00 88 1058.2
20260906163452 72 85 2.0 4.0 0.00 0.00 0.00 88 1058.5
20260906162950 72 157 4.0 4.0 0.00 0.00 0.00 88 1058.5
20260906162449 71 79 2.0 3.0 0.00 0.00 0.00 89 1058.1
20260906161944 71 181 3.0 6.0 0.00 0.00 0.00 89 1058.3
20260906161443 71 18 2.0 2.0 0.00 0.00 0.00 90 1058.2
20260906160942 71 158 2.0 4.0 0.00 0.00 0.00 90 1058.3
20260906160437 71 79 3.0 6.0 0.00 0.00 0.00 90 1058.2
20260906155935 71 165 2.0 2.0 0.00 0.00 0.00 91 1058.1
20260906155433 71 108 1.0 2.0 0.00 0.00 0.00 90 1057.9
20260906154930 71 160 4.0 6.0 0.00 0.00 0.00 90 1057.9
20260906154425 71 72 2.0 8.0 0.00 0.00 0.00 89 1057.9
20260906153924 71 74 3.0 7.0 0.00 0.00 0.00 90 1057.9
20260906153423 71 329 1.0 3.0 0.00 0.00 0.00 90 1058.2
20260906152918 70 87 4.0 7.0 0.00 0.00 0.00 90 1058.2
20260906152413 70 96 4.0 6.0 0.00 0.00 0.00 91 1058.3
20260906151912 70 137 1.0 6.0 0.00 0.00 0.00 92 1058.3
20260906151408 69 52 2.0 3.0 0.00 0.00 0.00 92 1058.6
20260906150903 69 44 2.0 4.0 0.00 0.00 0.00 92 1058.4
20260906150358 69 142 2.0 4.0 0.00 0.00 0.00 92 1058.4
20260906145857 69 226 0.0 3.0 0.00 0.00 0.00 93 1058.4
20260906145351 69 192 1.0 4.0 0.00 0.00 0.00 92 1058.4
20260906144846 69 208 3.0 3.0 0.00 0.00 0.00 92 1058.4
20260906144341 69 208 3.0 3.0 0.00 0.00 0.00 92 1058.4
20260906143840 69 224 0.0 1.0 0.00 0.00 0.00 93 1058.4
20260906143336 69 82 4.0 4.0 0.00 0.00 0.00 93 1058.4
20260906142832 70 113 5.0 6.0 0.00 0.00 0.00 92 1058.4
20260906142326 69 134 1.0 3.0 0.00 0.00 0.00 93 1058.5
20260906141821 69 222 0.0 1.0 0.00 0.00 0.00 93 1058.2
20260906141316 69 59 5.0 6.0 0.00 0.00 0.00 93 1058.1
20260906140814 69 297 1.0 2.0 0.00 0.00 0.00 94 1058.3
20260906140310 69 251 1.0 2.0 0.00 0.00 0.00 95 1057.9
20260906135807 69 130 1.0 4.0 0.00 0.00 0.00 95 1058.3
20260906135305 69 215 1.0 1.0 0.00 0.00 0.00 95 1058.3
20260906134758 69 220 2.0 2.0 0.00 0.00 0.00 94 1058.5
20260906134252 68 297 3.0 4.0 0.00 0.00 0.00 98 1058.4
20260906133748 68 297 3.0 4.0 0.00 0.00 0.00 98 1058.6
20260906133244 68 297 3.0 4.0 0.00 0.00 0.00 98 1058.3
20260906132738 68 297 3.0 4.0 0.00 0.00 0.00 98 1058.3
20260906132233 68 297 3.0 4.0 0.00 0.00 0.00 98 1058.3
20260906131729 68 297 3.0 4.0 0.00 0.00 0.00 98 1058.1
20260906131224 68 297 3.0 4.0 0.00 0.00 0.00 98 1058.2
20260906130720 68 297 3.0 4.0 0.00 0.00 0.00 98 1057.8
20260906130214 68 297 3.0 4.0 0.00 0.00 0.00 98 1057.7
20260906125713 68 297 3.0 4.0 0.00 0.00 0.00 98 1057.9
20260906125211 68 297 3.0 4.0 0.00 0.00 0.00 98 1057.9
20260906124707 68 297 3.0 4.0 0.00 0.00 0.00 98 1057.7
20260906124202 67 81 3.0 3.0 0.00 0.00 0.00 98 1057.8
20260906123700 67 36 3.0 3.0 0.00 0.00 0.00 99 1057.7
20260906123156 67 36 3.0 3.0 0.00 0.00 0.00 99 1057.4
20260906122655 67 36 3.0 3.0 0.00 0.00 0.00 99 1057.3
20260906122151 67 36 3.0 3.0 0.00 0.00 0.00 99 1057.2
20260906121647 67 218 0.0 0.0 0.00 0.00 0.00 99 1057.1
20260906121143 67 218 0.0 0.0 0.00 0.00 0.00 99 1057.0
20260906120639 67 30 3.0 3.0 0.00 0.00 0.00 99 1057.1
20260906120136 67 30 3.0 3.0 0.00 0.00 0.00 99 1056.8
20260906115636 67 31 2.0 2.0 0.00 0.00 0.00 99 1057.1
20260906115132 67 152 3.0 3.0 0.00 0.00 0.00 99 1057.0
20260906114631 67 20 1.0 1.0 0.00 0.00 0.00 99 1057.0
20260906114126 67 20 1.0 1.0 0.00 0.00 0.00 99 1057.0
20260906113621 67 20 1.0 1.0 0.00 0.00 0.00 99 1056.9
20260906113121 67 20 1.0 1.0 0.00 0.00 0.00 99 1057.2
20260906112620 67 79 2.0 3.0 0.00 0.00 0.00 99 1057.1
20260906112117 67 199 1.0 4.0 0.00 0.00 0.00 99 1056.9
20260906111616 67 200 2.0 3.0 0.00 0.00 0.00 99 1057.0
20260906111111 67 177 2.0 4.0 0.00 0.00 0.00 99 1056.9
20260906110606 67 195 1.0 2.0 0.00 0.00 0.00 99 1057.2
20260906110106 67 237 0.0 1.0 0.00 0.00 0.00 99 1056.9
20260906105600 66 47 1.0 2.0 0.00 0.00 0.00 99 1057.1
20260906105056 66 224 0.0 0.0 0.00 0.00 0.00 99 1057.1
20260906104555 66 238 0.0 1.0 0.00 0.00 0.00 99 1056.9
20260906104049 66 239 0.0 1.0 0.00 0.00 0.00 99 1057.0
20260906103547 66 268 1.0 2.0 0.00 0.00 0.00 99 1056.9
20260906103043 66 247 0.0 0.0 0.00 0.00 0.00 99 1057.0
20260906102543 66 308 0.0 1.0 0.00 0.00 0.00 99 1056.7
20260906102038 66 49 1.0 2.0 0.00 0.00 0.00 99 1056.6
20260906101532 66 187 0.0 2.0 0.00 0.00 0.00 99 1056.7
20260906101027 66 62 1.0 2.0 0.00 0.00 0.00 99 1056.7
20260906100523 66 211 1.0 2.0 0.00 0.00 0.00 99 1056.5
20260906100018 66 259 0.0 2.0 0.00 0.00 0.00 99 1056.6
20260906095513 66 204 0.0 1.0 0.00 0.00 0.00 99 1056.5
20260906095008 66 274 0.0 0.0 0.00 0.00 0.00 99 1056.6
20260906094507 66 238 0.0 1.0 0.00 0.00 0.00 99 1056.5
20260906094003 66 213 0.0 1.0 0.00 0.00 0.00 99 1056.5
20260906093459 66 212 0.0 1.0 0.00 0.00 0.00 98 1056.5
20260906092953 67 238 0.0 1.0 0.00 0.00 0.00 98 1056.4
20260906092453 67 225 0.0 0.0 0.00 0.00 0.00 98 1056.5
20260906091948 67 227 0.0 1.0 0.00 0.00 0.00 98 1056.5
20260906091444 67 227 0.0 0.0 0.00 0.00 0.00 97 1056.5
20260906090940 68 209 1.0 2.0 0.00 0.00 0.00 97 1056.3
20260906090436 68 237 0.0 2.0 0.00 0.00 0.00 97 1056.2
20260906085930 68 223 0.0 1.0 0.00 0.00 0.00 97 1056.1
20260906085430 68 179 2.0 3.0 0.00 0.00 0.00 97 1055.9
20260906084929 68 220 1.0 2.0 0.00 0.00 0.00 96 1055.8
20260906084424 69 10 2.0 3.0 0.00 0.00 0.00 96 1055.8
20260906083923 69 216 0.0 4.0 0.00 0.00 0.00 96 1055.7
20260906083418 69 81 4.0 6.0 0.00 0.00 0.00 96 1055.7
20260906082917 69 20 2.0 4.0 0.00 0.00 0.00 96 1055.8
20260906082413 69 302 2.0 3.0 0.00 0.00 0.00 96 1056.0
20260906081909 69 99 2.0 2.0 0.00 0.00 0.00 96 1055.9
20260906081404 69 74 3.0 3.0 0.00 0.00 0.00 96 1055.9
20260906080900 69 261 4.0 6.0 0.00 0.00 0.00 96 1055.8
20260906080357 69 101 2.0 6.0 0.00 0.00 0.00 96 1055.8
20260906075856 69 47 4.0 4.0 0.00 0.00 0.00 96 1055.8
20260906075350 69 220 2.0 4.0 0.00 0.00 0.00 95 1055.8
20260906074846 69 44 2.0 3.0 0.00 0.00 0.00 95 1055.8
20260906074345 69 157 1.0 4.0 0.00 0.00 0.00 95 1056.0
20260906073844 69 143 2.0 3.0 0.00 0.00 0.00 95 1056.1
20260906073339 70 343 1.0 3.0 0.00 0.00 0.00 95 1056.1
20260906072836 70 126 2.0 4.0 0.00 0.00 0.00 94 1056.2
20260906072331 70 313 1.0 6.0 0.00 0.00 0.00 94 1056.2
20260906071827 70 245 2.0 3.0 0.00 0.00 0.00 94 1056.2
20260906071322 70 1 3.0 4.0 0.00 0.00 0.00 94 1056.1
20260906070818 70 89 1.0 7.0 0.00 0.00 0.00 94 1056.2
20260906070314 70 340 1.0 4.0 0.00 0.00 0.00 94 1056.4
20260906065813 70 52 4.0 6.0 0.00 0.00 0.00 94 1056.3
20260906065309 71 221 2.0 8.0 0.00 0.00 0.00 94 1056.3
20260906064804 71 16 2.0 4.0 0.00 0.00 0.00 94 1056.3
20260906064300 70 70 1.0 3.0 0.00 0.00 0.00 94 1056.5
20260906063755 71 38 4.0 8.0 0.00 0.00 0.00 94 1056.4
20260906063251 71 51 2.0 4.0 0.00 0.00 0.00 94 1056.3
20260906062746 71 94 3.0 6.0 0.00 0.00 0.00 94 1056.5
20260906062245 71 100 5.0 7.0 0.00 0.00 0.00 93 1056.5
20260906061741 71 36 2.0 4.0 0.00 0.00 0.00 93 1056.4
20260906061237 71 63 1.0 2.0 0.00 0.00 0.00 93 1056.4
20260906060731 71 64 4.0 4.0 0.00 0.00 0.00 93 1056.3
20260906060229 71 226 0.0 2.0 0.00 0.00 0.00 94 1056.5
20260906055725 71 33 2.0 3.0 0.00 0.00 0.00 94 1056.5
20260906055220 71 70 1.0 4.0 0.00 0.00 0.00 94 1056.4
20260906054716 71 312 1.0 4.0 0.00 0.00 0.00 94 1056.5
20260906054215 71 95 2.0 3.0 0.00 0.00 0.00 95 1056.6
20260906053712 71 72 2.0 3.0 0.00 0.00 0.00 95 1056.6
20260906053207 71 76 2.0 3.0 0.00 0.00 0.00 95 1056.7
20260906052702 71 357 1.0 2.0 0.00 0.00 0.00 95 1056.4
20260906052159 71 139 1.0 3.0 0.00 0.00 0.00 95 1056.4
20260906051655 71 56 2.0 3.0 0.00 0.00 0.00 95 1056.5
20260906051154 71 273 1.0 3.0 0.00 0.00 0.00 95 1056.4
20260906050650 72 81 3.0 4.0 0.00 0.00 0.00 95 1056.6
20260906050145 72 22 1.0 3.0 0.00 0.00 0.00 96 1056.5
20260906045643 72 262 1.0 3.0 0.00 0.00 0.00 96 1056.6
20260906045139 72 288 1.0 2.0 0.00 0.00 0.00 96 1056.6
20260906044635 72 121 3.0 7.0 0.00 0.00 0.00 96 1056.3
20260906044130 72 49 1.0 3.0 0.00 0.00 0.00 95 1056.3
20260906043626 72 157 1.0 1.0 0.00 0.00 0.00 95 1056.3
20260906043121 72 37 2.0 3.0 0.00 0.00 0.00 96 1056.2
20260906042621 72 55 1.0 2.0 0.00 0.00 0.00 96 1056.5
20260906042115 72 7 2.0 2.0 0.00 0.00 0.00 96 1056.3
20260906041611 72 252 1.0 2.0 0.00 0.00 0.00 96 1056.1
20260906041106 72 142 1.0 2.0 0.00 0.00 0.00 96 1056.2
20260906040601 72 102 3.0 3.0 0.00 0.00 0.00 96 1056.2
20260906040057 73 92 2.0 3.0 0.00 0.00 0.00 96 1056.4
20260906035552 73 37 2.0 3.0 0.00 0.00 0.00 95 1056.3
20260906035042 73 358 2.0 2.0 0.00 0.00 0.00 95 1056.1
20260906034542 73 271 0.0 1.0 0.00 0.00 0.00 95 1056.2
20260906034037 73 219 0.0 3.0 0.00 0.00 0.00 95 1056.1
20260906033532 73 166 1.0 1.0 0.00 0.00 0.00 95 1056.4
20260906033027 73 193 1.0 1.0 0.00 0.00 0.00 95 1056.3
20260906032524 73 212 0.0 3.0 0.00 0.00 0.00 94 1056.3
20260906032024 73 212 1.0 2.0 0.00 0.00 0.00 94 1056.3
20260906031520 73 315 1.0 1.0 0.00 0.00 0.00 95 1056.1
20260906031015 73 293 0.0 1.0 0.00 0.00 0.00 95 1056.2
20260906030514 73 5 1.0 2.0 0.00 0.00 0.00 95 1056.0
20260906030014 73 244 0.0 0.0 0.00 0.00 0.00 95 1056.2
20260906025514 73 257 0.0 0.0 0.00 0.00 0.00 94 1056.0
20260906025012 73 249 0.0 0.0 0.00 0.00 0.00 94 1056.0
20260906024508 73 222 1.0 2.0 0.00 0.00 0.00 94 1056.2
20260906024008 73 169 0.0 0.0 0.00 0.00 0.00 95 1055.7
20260906023504 73 285 0.0 0.0 0.00 0.00 0.00 95 1055.9
20260906022959 73 228 0.0 0.0 0.00 0.00 0.00 95 1055.9
20260906022454 73 220 0.0 0.0 0.00 0.00 0.00 95 1056.0
20260906021949 73 299 0.0 0.0 0.00 0.00 0.00 95 1055.7
20260906021444 73 227 0.0 0.0 0.00 0.00 0.00 94 1055.8
20260906020944 73 241 0.0 0.0 0.00 0.00 0.00 95 1055.9
20260906020438 73 175 0.0 0.0 0.00 0.00 0.00 95 1055.5
20260906015932 73 222 0.0 0.0 0.00 0.00 0.00 96 1055.6
20260906015426 73 239 0.0 0.0 0.00 0.00 0.00 96 1055.4
20260906014926 73 252 0.0 0.0 0.00 0.00 0.00 96 1055.2
20260906014426 73 249 0.0 0.0 0.00 0.00 0.00 96 1055.3
20260906013922 73 274 0.0 0.0 0.00 0.00 0.00 96 1055.2
20260906013417 73 248 0.0 0.0 0.00 0.00 0.00 96 1055.2
20260906012913 73 220 0.0 0.0 0.00 0.00 0.00 96 1055.4
20260906012408 73 221 0.0 0.0 0.00 0.00 0.00 95 1055.3
20260906011907 73 237 0.0 0.0 0.00 0.00 0.00 95 1054.9
20260906011402 73 248 0.0 0.0 0.00 0.00 0.00 95 1055.1
20260906010858 74 226 0.0 0.0 0.00 0.00 0.00 95 1054.8
20260906010353 74 248 0.0 0.0 0.00 0.00 0.00 94 1054.9
20260906005849 74 237 0.0 0.0 0.00 0.00 0.00 94 1054.7
20260906005348 74 238 0.0 0.0 0.00 0.00 0.00 93 1054.6
20260906004847 75 252 0.0 0.0 0.00 0.00 0.00 93 1054.6
20260906004342 75 270 0.0 0.0 0.00 0.00 0.00 93 1054.6
20260906003837 75 227 0.0 0.0 0.00 0.00 0.00 92 1054.6
20260906003332 75 239 0.0 0.0 0.00 0.00 0.00 92 1054.6
20260906002828 75 257 0.0 0.0 0.00 0.00 0.00 92 1054.4
20260906002327 75 238 0.0 0.0 0.00 0.00 0.00 91 1054.7
20260906001823 75 234 0.0 0.0 0.00 0.00 0.00 91 1054.6
20260906001318 75 223 0.0 0.0 0.00 0.00 0.00 91 1054.4
20260906000813 75 298 0.0 3.0 0.00 0.00 0.00 91 1054.4
20260906000308 76 187 1.0 1.0 0.00 0.00 0.00 91 1054.5
20260905235803 76 220 0.0 0.0 0.00 0.00 0.00 91 1054.3
20260905235306 76 238 0.0 1.0 0.00 0.00 0.00 91 1054.6
20260905234757 76 188 0.0 2.0 0.00 0.00 0.00 91 1054.6
20260905234252 76 44 1.0 2.0 0.00 0.00 0.00 91 1054.4
20260905233748 76 222 0.0 0.0 0.00 0.00 0.00 91 1054.4
20260905233247 76 231 0.0 3.0 0.00 0.00 0.00 91 1054.3
20260905232742 76 200 1.0 2.0 0.00 0.00 0.00 91 1054.3
20260905232238 76 139 2.0 2.0 0.00 0.00 0.00 91 1054.3
20260905231734 77 237 1.0 1.0 0.00 0.00 0.00 90 1054.4
20260905231229 77 135 0.0 2.0 0.00 0.00 0.00 90 1054.3
20260905230725 77 330 0.0 1.0 0.00 0.00 0.00 90 1054.2
20260905230222 77 47 3.0 3.0 0.00 0.00 0.00 88 1054.5
20260905225722 77 58 1.0 2.0 0.00 0.00 0.00 88 1054.4